アトラス彗星

C/2020 A3 ( ATLAS )

English version
Home page
Updated on May 3, 2020

---------------------------------------------------------------------

・ プロフィール

発見日 2020年1月3日
発見光度 19.8等
発見者 Asteroid Terrestrial-Impact Last Alert System (ATLAS) search program

・ 軌道要素

Epoch 2019 July 16.0 TT = JDT 2458680.5
T 2019 June 29.30613 TT                                 Rudenko
q   5.7684022            (2000.0)            P               Q
z  +0.0000653      Peri.  268.44953     -0.70393586     -0.53106687
 +/-0.0000715      Node   120.78552     -0.19537960     +0.78319929
e   0.9996235      Incl.  146.70174     -0.68286244     +0.32336798
From 61 observations 2020 Jan. 3-Mar. 28, mean residual 0".6.

・ 光度変化

        m1 = 7.0 + 5 logΔ + 10.0 log r

---------------------------------------------------------------------

軌道要素はM.P.E.C. 2020-H235に掲載されたものです。
光度グラフはComet for Windowsで作成したものです。

---------------------------------------------------------------------

Copyright(C) Seiichi Yoshida (comet@aerith.net). All rights reserved.